Torna al catalogo

COSMOS 1011

AttivoMilitarePO
NORAD 10917·PAYLOAD·🇷🇺 Russia

Lanciato May 23, 1978 da Plesetsk Cosmodrome

Loading…

Prossimi Passaggi (prossime 24 ore)

TLE

AggiornatoSource: Space-Track

Epoca: Sep 14, 2026, 07:05 UTC

1 10917U 78053A   26257.29534690  .00000050  00000-0  35500-4 0  9993
2 10917  82.9215  11.8952 0037871  73.0298 316.1632 13.75532079424181

Traccia COSMOS 1011 in tempo reale con AllMySat

Download on the App Store